Regional Weather Roundup
Issued by NWS

Home | Current Version | Previous Version | Graphics & Text | Print | Product List | Glossary On
Versions: 1 2 3 4 5 6 7 8 9 10 11 12 13 14 15 16 17 18 19 20 21 22 23 24 25 26 27 28 29 30 31 32 33 34 35 36 37 38 39 40 41 42 43 44 45 46 47 48 49 50
000
ASUS43 KBIS 080410
RWRND

NORTH DAKOTA REGIONAL WEATHER ROUNDUP
NATIONAL WEATHER SERVICE BISMARCK ND
1000 PM CST WED DEC 07 2016

NOTE: "FAIR" INDICATES FEW OR NO CLOUDS BELOW 12,000 FEET WITH NO
SIGNIFICANT WEATHER AND/OR OBSTRUCTIONS TO VISIBILITY.


NDZ001>003-009>011-017-080500-
NORTHWEST NORTH DAKOTA

CITY           SKY/WX    TMP DP  RH WIND       PRES   REMARKS
WILLISTON      CLOUDY     2  -6  69 NW13      30.57R WCI -15
MINOT          FLURRIES   6   1  80 W29G37    30.42R WCI -17
MINOT AFB      CLEAR      5   0  78 NW29G35   30.42R HAZE    WCI -19
$$

NDZ018>021-031>035-040>046-080500-
SOUTHWEST NORTH DAKOTA

CITY           SKY/WX    TMP DP  RH WIND       PRES   REMARKS
BISMARCK       MIX PCPN   4   0  83 W18       30.46R WCI -16
DICKINSON      CLOUDY     0  -6  76 W24G33    30.43R WCI -24
GARRISON         N/A      3  -1  83 NW28G36   30.42R WCI -21
HETTINGER ARPT PTCLDY     1  -6  72 NW20      30.46R WCI -20
$$

NDZ004>008-012>016-024-026-027-054-080500-
NORTHEAST NORTH DAKOTA

CITY           SKY/WX    TMP DP  RH WIND       PRES   REMARKS
GRAND FORKS    LGT SNOW  20  16  84 NW23      30.20R VSB 1   WCI   3
GRND FRKS AFB  LGT SNOW  19  14  79 N21       30.22R WCI   3
DEVILS LAKE    LGT SNOW  13  10  88 NW22      30.29R FOG     WCI  -6
$$

NDZ022-023-025-028>030-036>039-047>053-080500-
SOUTHEAST NORTH DAKOTA

CITY           SKY/WX    TMP DP  RH WIND       PRES   REMARKS
FARGO          LGT SNOW  19  14  81 NW24G32   30.20R WCI   2
JAMESTOWN      LGT SNOW   8   4  83 NW31G39   30.29R FOG     WCI -15
$$





USA.gov is the U.S. government's official web portal to all federal, state and local government web resources and services.